Temp
96 95 83 84 84 84 84 84 84 84 83 83 83 83 83 83 83 83 83 83 84 84 84 84 85 85 84 84 84 84 83 83 83 83 83 83 82 82 83 84 84 90 82
99 96 83 84 84 84 84 83 83 83 83 83 83 83 83 83 83 84 84 83 83 84 84 84 84 85 84 84 84 84 84 84 84 84 84 84 83 83 83 83 86 86 82
99 97 91 83 83 84 83 83 83 83 84 83 83 83 83 83 83 84 84 83 83 84 84 84 84 85 84 84 83 83 84 83 84 84 84 92 88 83 83 82 83 82 82
99 98 95 82 83 83 83 83 83 84 83 83 83 83 83 84 84 84 84 84 84 84 84 84 84 84 84 83 83 83 84 84 84 84 91 95 94 83 83 83 83 82 82
97 99 93 83 83 83 83 83 83 83 83 83 83 84 84 84 84 84 84 84 84 84 84 84 85 84 84 83 83 83 83 84 83 85 93 94 86 85 83 82 82 82 82
97 100 85 83 84 83 83 83 83 83 83 83 84 84 84 84 84 84 84 84 84 84 84 84 85 84 84 83 83 83 83 83 83 94 92 89 91 83 83 83 83 82 81
96 98 91 83 83 83 83 83 83 83 83 83 84 84 84 84 84 84 84 84 84 84 84 84 85 84 83 83 83 83 83 83 92 93 92 92 86 82 83 83 83 82 81
96 97 93 84 83 83 83 83 83 83 83 84 84 84 84 84 84 84 84 84 84 84 84 84 84 84 83 83 83 82 82 83 91 93 92 93 81 82 83 82 82 82 81
96 95 93 91 87 84 84 84 83 84 84 84 84 84 84 84 84 83 84 83 83 84 84 84 84 84 84 83 83 83 83 83 93 93 94 94 80 82 83 82 82 82 81
94 94 93 91 91 90 90 83 83 83 84 84 84 84 84 84 84 84 83 83 83 83 83 84 83 83 83 83 82 83 83 83 90 95 93 95 81 82 83 82 82 81 81
91 93 91 92 89 89 90 88 84 84 84 84 84 84 85 93 93 91 88 83 83 83 84 84 84 83 82 83 83 82 83 92 89 91 96 81 81 82 82 82 81 81 80
89 91 93 89 88 88 89 88 89 90 92 92 86 88 88 94 94 93 89 83 83 84 84 83 83 83 83 83 84 84 88 91 91 90 92 80 80 82 82 81 81 81 81
91 92 92 91 89 90 92 86 89 85 86 86 87 87 87 86 86 94 94 92 90 84 93 89 88 90 85 86 85 84 89 88 91 95 90 80 80 82 82 81 81 81 81
91 92 92 90 88 90 86 86 89 90 88 84 80 80 82 85 82 83 85 85 84 93 87 90 90 88 88 86 87 84 84 85 91 93 92 81 80 81 83 81 81 81 81
89 90 90 90 89 89 87 86 86 92 92 92 88 84 79 76 78 76 80 82 82 88 92 89 91 90 88 85 84 85 87 84 82 87 92 83 80 80 81 82 81 81 81
91 89 90 88 88 88 88 87 84 87 91 91 92 91 87 84 75 70 70 79 79 85 93 92 87 91 89 89 86 85 86 85 85 85 91 92 81 80 80 82 81 81 81
89 91 89 88 89 88 86 88 87 90 92 93 92 89 88 85 84 82 79 71 76 84 86 87 87 89 90 90 88 86 87 86 88 86 88 91 92 81 81 81 79 77 79
88 86 81 83 86 86 86 86 87 91 92 92 92 91 88 87 86 86 87 79 80 82 84 90 89 84 85 90 88 88 87 86 86 84 87 90 92 93 82 81 80 78 77
88 82 80 79 80 86 84 84 86 85 87 92 92 91 87 87 88 87 85 89 88 87 85 86 88 87 84 86 89 89 88 85 83 84 85 84 86 91 92 81 80 79 79
86 81 78 76 76 80 86 84 85 85 83 90 90 90 88 88 87 87 87 86 85 88 90 90 87 90 88 87 87 89 88 88 82 81 85 84 80 86 91 89 78 81 79
82 81 80 79 72 79 81 83 83 81 83 90 89 87 86 87 86 85 85 85 84 83 86 86 83 80 80 84 82 86 88 88 82 82 84 83 83 86 89 87 77 77 79
81 84 81 76 70 74 80 86 85 84 88 84 89 85 86 85 84 82 83 82 82 76 80 81 81 77 80 82 81 84 81 86 88 84 85 86 87 85 85 86 82 84 86
83 84 84 80 75 72 73 84 84 83 84 87 88 87 87 84 83 83 82 81 81 79 77 79 78 78 78 83 81 82 79 78 81 85 84 86 86 82 84 85 85 84 87
86 84 82 82 78 78 77 82 81 85 83 85 85 86 83 83 83 83 82 82 78 78 79 81 82 79 75 75 77 84 83 81 71 73 84 84 87 83 83 84 88 88 89
86 83 82 81 81 81 81 82 86 83 86 86 85 82 81 83 83 83 82 82 78 77 79 81 77 72 72 75 74 79 80 81 78 75 73 72 82 89 90 90 92 93 91
85 84 83 79 79 81 82 81 80 78 79 82 81 82 85 86 85 82 81 80 78 78 78 79 79 72 71 74 75 78 79 79 79 73 70 74 73 85 92 93 92 93 94
MSLP
1010.92 1011.90 1013.29 1013.60 1013.90 1014.14 1014.41 1014.60 1014.82 1015.05 1015.42 1015.56 1015.95 1016.29 1016.54 1016.76 1016.98 1017.07 1017.26 1017.43 1017.57 1017.78 1017.85 1017.99 1018.05 1018.23 1018.33 1018.53 1018.65 1018.77 1018.90 1019.07 1019.18 1019.37 1019.54 1019.67 1019.90 1020.03 1020.02 1019.89 1019.72 1019.70 1020.45
1010.68 1011.92 1013.38 1013.78 1014.12 1014.36 1014.58 1014.79 1015.01 1015.31 1015.57 1015.91 1016.19 1016.48 1016.70 1017.08 1017.11 1017.31 1017.51 1017.62 1017.62 1017.76 1017.98 1018.09 1018.12 1018.20 1018.30 1018.48 1018.76 1018.87 1019.02 1019.27 1019.40 1019.52 1019.66 1019.82 1020.14 1020.24 1020.34 1020.26 1019.77 1020.33 1020.66
1010.78 1012.02 1013.31 1014.14 1014.57 1014.76 1014.83 1015.15 1015.45 1015.69 1015.97 1016.20 1016.41 1016.64 1016.92 1017.13 1017.24 1017.54 1017.72 1017.83 1017.92 1018.02 1018.09 1018.16 1018.21 1018.30 1018.45 1018.67 1018.95 1019.04 1019.18 1019.45 1019.61 1019.64 1019.54 1019.02 1019.86 1020.48 1020.51 1020.64 1020.62 1020.84 1020.96
1011.14 1012.18 1013.02 1014.37 1014.83 1015.05 1015.22 1015.41 1015.73 1015.95 1016.23 1016.38 1016.63 1016.83 1017.01 1017.26 1017.45 1017.62 1017.82 1018.05 1018.11 1018.13 1018.19 1018.26 1018.30 1018.44 1018.60 1018.77 1019.02 1019.29 1019.34 1019.50 1019.72 1019.67 1018.90 1018.62 1019.23 1020.58 1020.70 1020.88 1021.02 1021.10 1021.23
1011.62 1012.19 1013.40 1014.43 1014.80 1015.20 1015.43 1015.71 1015.87 1016.12 1016.35 1016.58 1016.72 1016.97 1017.20 1017.39 1017.54 1017.69 1017.87 1017.93 1018.14 1018.34 1018.28 1018.37 1018.47 1018.57 1018.81 1018.98 1019.24 1019.39 1019.54 1019.65 1019.84 1019.50 1018.87 1018.77 1019.42 1020.54 1020.82 1021.01 1021.17 1021.28 1021.33
1011.68 1012.12 1014.06 1014.49 1014.82 1015.22 1015.51 1015.82 1015.97 1016.24 1016.56 1016.78 1016.91 1017.05 1017.25 1017.45 1017.64 1017.72 1017.91 1017.97 1018.17 1018.35 1018.42 1018.61 1018.66 1018.87 1019.00 1019.21 1019.39 1019.58 1019.69 1019.84 1019.87 1018.82 1019.21 1019.55 1019.14 1020.44 1020.94 1021.04 1021.14 1021.34 1021.54
1012.06 1012.38 1013.86 1014.61 1015.04 1015.38 1015.71 1015.93 1016.09 1016.34 1016.62 1016.88 1017.06 1017.24 1017.38 1017.58 1017.79 1017.98 1018.07 1018.16 1018.26 1018.33 1018.62 1018.78 1018.84 1019.04 1019.24 1019.38 1019.65 1019.71 1019.80 1019.92 1019.07 1019.07 1019.16 1019.43 1019.86 1020.63 1020.94 1021.19 1021.38 1021.52 1021.67
1012.09 1012.58 1013.79 1014.65 1014.92 1015.21 1015.54 1015.99 1016.28 1016.51 1016.75 1017.03 1017.33 1017.46 1017.60 1017.74 1017.82 1018.00 1018.16 1018.32 1018.37 1018.46 1018.64 1018.86 1019.04 1019.15 1019.38 1019.60 1019.82 1019.93 1020.03 1019.97 1019.34 1018.97 1019.17 1019.31 1020.21 1020.78 1020.94 1021.23 1021.50 1021.63 1021.81
1012.23 1012.71 1013.79 1014.56 1015.07 1015.38 1015.56 1015.92 1016.24 1016.63 1016.94 1017.20 1017.43 1017.70 1017.82 1017.86 1018.10 1018.36 1018.35 1018.46 1018.51 1018.54 1018.76 1018.94 1019.10 1019.26 1019.55 1019.67 1019.89 1020.05 1020.20 1020.09 1019.03 1019.08 1019.16 1019.18 1020.37 1020.84 1020.98 1021.19 1021.50 1021.74 1021.91
1012.68 1012.99 1013.41 1014.15 1014.79 1015.17 1015.56 1015.99 1016.25 1016.40 1016.70 1017.01 1017.21 1017.47 1017.90 1018.01 1018.17 1018.44 1018.59 1018.55 1018.69 1018.75 1018.77 1018.92 1019.27 1019.38 1019.57 1019.68 1019.88 1020.13 1020.21 1020.35 1019.55 1018.84 1019.25 1019.11 1020.28 1020.79 1020.96 1021.26 1021.50 1021.79 1021.96
1012.98 1013.36 1013.79 1014.07 1014.67 1014.75 1015.05 1015.67 1016.25 1016.64 1016.72 1017.00 1017.25 1017.37 1017.73 1017.28 1017.32 1017.81 1018.02 1018.48 1018.65 1018.84 1018.85 1018.97 1019.13 1019.38 1019.47 1019.69 1019.86 1020.06 1020.29 1019.54 1019.44 1018.98 1018.51 1019.59 1020.40 1020.75 1020.99 1021.26 1021.49 1021.72 1022.03
1012.99 1013.38 1013.77 1014.66 1014.58 1014.97 1015.12 1015.48 1015.77 1015.97 1016.24 1016.42 1016.94 1017.06 1017.16 1016.70 1016.94 1017.29 1017.78 1018.60 1018.75 1018.70 1018.79 1018.95 1019.07 1019.25 1019.49 1019.64 1019.62 1019.90 1019.78 1019.13 1019.08 1018.95 1018.66 1019.59 1020.38 1020.74 1020.88 1021.26 1021.51 1021.64 1021.87
1012.80 1013.24 1013.84 1014.22 1014.79 1014.95 1014.49 1015.73 1015.71 1016.13 1016.48 1016.70 1016.97 1017.00 1017.36 1017.60 1017.61 1017.25 1017.29 1017.81 1018.09 1018.47 1017.64 1018.13 1018.67 1018.71 1019.01 1019.17 1019.40 1019.37 1019.15 1019.23 1018.84 1018.43 1018.71 1019.71 1020.28 1020.63 1020.77 1021.08 1021.34 1021.61 1021.82
1012.43 1012.97 1013.50 1014.21 1014.80 1014.77 1015.30 1015.86 1015.49 1015.67 1016.10 1016.49 1016.46 1017.07 1017.47 1017.83 1018.32 1018.27 1018.27 1018.44 1018.43 1017.27 1018.01 1017.61 1017.97 1018.30 1018.57 1018.92 1018.99 1019.33 1019.35 1019.36 1018.86 1018.63 1018.68 1019.63 1020.09 1020.41 1020.50 1020.92 1021.13 1021.40 1021.73
1012.62 1013.11 1013.76 1014.14 1014.53 1014.75 1015.25 1015.82 1015.86 1015.08 1015.29 1015.36 1016.25 1016.90 1017.38 1017.70 1018.36 1018.22 1018.39 1018.52 1018.64 1017.64 1017.08 1017.49 1017.43 1017.54 1017.96 1018.64 1018.92 1018.90 1018.83 1019.08 1019.35 1019.27 1018.70 1019.10 1019.78 1020.14 1020.33 1020.55 1020.90 1021.16 1021.46
1012.42 1013.07 1013.66 1014.22 1014.50 1014.65 1014.99 1015.16 1015.82 1015.67 1015.43 1015.70 1015.52 1015.92 1016.88 1017.47 1018.04 1018.25 1018.14 1018.12 1018.50 1017.59 1016.62 1016.81 1017.39 1017.15 1017.50 1017.77 1018.26 1018.65 1018.51 1018.75 1018.81 1018.88 1018.55 1018.30 1019.15 1019.71 1020.01 1020.28 1020.71 1020.85 1021.31
1012.55 1012.97 1013.34 1013.84 1014.38 1014.73 1015.18 1015.23 1015.56 1015.38 1015.23 1015.09 1015.41 1015.93 1016.28 1016.94 1017.08 1017.56 1017.94 1018.94 1018.50 1017.41 1017.06 1017.19 1017.12 1017.10 1017.22 1017.27 1017.66 1017.89 1018.16 1018.21 1018.07 1018.28 1018.49 1018.17 1017.91 1019.02 1019.59 1020.00 1020.32 1020.71 1021.02
1012.62 1013.13 1013.78 1013.05 1014.39 1014.92 1015.15 1015.20 1015.12 1014.88 1014.94 1014.90 1015.01 1015.34 1015.91 1016.15 1016.42 1016.50 1016.47 1017.65 1017.51 1017.18 1016.77 1016.41 1016.86 1017.22 1017.33 1016.90 1017.10 1017.29 1017.62 1017.90 1017.71 1018.09 1018.01 1017.79 1017.75 1017.60 1018.61 1019.30 1019.73 1020.20 1020.60
1012.28 1013.30 1013.71 1013.84 1013.92 1014.80 1015.10 1015.36 1015.27 1015.43 1015.32 1014.68 1014.83 1015.06 1015.49 1015.70 1015.70 1015.72 1015.95 1015.44 1015.68 1016.01 1016.28 1016.40 1016.57 1016.94 1017.34 1017.06 1016.71 1016.90 1017.07 1017.53 1017.69 1017.57 1017.56 1017.72 1017.85 1017.67 1017.33 1017.97 1018.91 1019.60 1020.07
1012.45 1013.19 1013.83 1014.24 1013.67 1014.81 1014.64 1015.07 1015.11 1015.04 1015.17 1014.59 1014.71 1014.89 1015.16 1015.32 1015.33 1015.35 1015.16 1015.25 1015.44 1015.40 1015.17 1015.54 1015.93 1016.06 1016.31 1016.64 1016.75 1016.22 1016.47 1016.65 1017.20 1017.34 1017.10 1017.26 1017.68 1017.65 1017.28 1017.49 1018.45 1018.84 1019.28
1012.83 1013.38 1013.87 1014.35 1014.18 1014.43 1014.29 1014.58 1014.96 1014.84 1014.62 1014.32 1014.34 1014.70 1015.00 1015.04 1015.02 1014.95 1014.62 1014.80 1015.29 1015.44 1015.18 1015.35 1015.99 1016.56 1016.75 1016.62 1016.76 1016.08 1015.76 1016.05 1016.56 1016.78 1016.64 1016.72 1016.88 1016.90 1016.63 1017.01 1017.98 1018.11 1018.13
1013.02 1013.37 1014.05 1014.73 1014.70 1014.79 1014.34 1014.74 1014.88 1014.75 1014.52 1014.44 1014.33 1014.68 1014.78 1014.81 1014.66 1014.74 1014.56 1014.54 1014.68 1015.10 1015.44 1015.62 1015.82 1016.31 1016.20 1016.49 1016.24 1015.44 1014.96 1014.83 1015.18 1016.10 1016.13 1016.02 1016.03 1016.27 1016.45 1016.58 1017.17 1017.24 1016.94
1012.70 1012.91 1013.33 1014.41 1014.92 1015.14 1014.99 1015.12 1015.07 1014.86 1014.46 1013.90 1013.77 1014.09 1014.16 1014.47 1014.53 1014.31 1014.31 1014.41 1014.40 1014.78 1014.85 1015.22 1015.51 1015.88 1015.65 1015.41 1016.19 1015.67 1014.98 1014.55 1014.45 1014.98 1015.55 1015.52 1015.65 1016.06 1015.81 1016.00 1016.36 1016.49 1016.42
1012.26 1012.92 1013.33 1013.99 1014.79 1015.11 1015.27 1014.98 1014.59 1014.09 1013.95 1014.01 1014.00 1014.07 1014.30 1014.03 1014.08 1013.96 1013.96 1013.93 1014.22 1014.36 1014.32 1014.54 1015.01 1015.37 1015.85 1015.73 1016.00 1015.82 1015.54 1015.57 1015.44 1015.20 1015.04 1015.13 1015.25 1015.44 1015.62 1015.74 1015.58 1015.75 1015.88
1012.31 1012.98 1013.53 1014.07 1014.49 1014.73 1014.77 1014.62 1014.07 1014.17 1014.16 1014.21 1014.02 1014.21 1013.90 1013.72 1013.57 1013.48 1013.41 1013.37 1013.75 1014.08 1014.07 1014.09 1014.73 1015.20 1015.57 1015.45 1015.65 1015.41 1015.36 1015.56 1015.82 1015.62 1015.24 1015.36 1015.31 1014.86 1014.83 1014.80 1014.45 1014.43 1014.95
1012.30 1012.90 1013.43 1013.99 1014.25 1014.22 1014.30 1014.43 1014.54 1014.64 1014.65 1014.22 1014.36 1013.97 1013.46 1013.07 1013.07 1013.29 1013.32 1013.22 1013.35 1013.62 1013.63 1013.72 1014.25 1014.84 1015.04 1015.32 1015.54 1015.37 1015.23 1014.91 1014.87 1015.58 1015.73 1015.66 1015.27 1014.50 1014.23 1014.15 1014.04 1014.03 1014.18
Wind_Speed
13 18 13 12 12 12 12 12 12 13 13 14 14 14 13 14 13 12 10 11 12 10 8 7 7 6 8 8 8 12 13 12 13 13 13 13 12 11 12 11 12 15 13
16 18 13 13 12 13 13 13 13 13 13 13 13 13 13 12 11 11 10 9 10 10 8 6 6 6 7 9 9 13 13 12 13 14 12 13 13 12 10 6 7 15 13
16 18 17 12 13 13 14 13 13 13 14 13 13 13 13 12 11 10 9 8 7 8 8 6 6 7 9 9 11 13 13 12 13 12 13 12 11 12 10 12 14 13 12
15 17 17 12 13 13 13 13 13 14 14 14 14 13 13 12 11 10 8 7 6 5 7 6 7 8 10 10 12 12 12 11 11 11 11 11 12 10 12 13 12 11 12
14 16 17 14 14 14 14 13 12 13 13 13 13 13 12 11 10 9 8 7 6 5 5 4 7 9 9 11 11 12 12 10 11 12 6 5 5 12 12 12 13 11 11
13 15 18 15 15 15 14 13 13 13 12 12 12 11 11 10 9 8 7 6 6 6 5 4 6 7 9 11 11 11 11 12 11 7 6 6 4 15 12 11 10 10 11
13 13 16 14 14 13 13 13 13 13 12 12 11 10 10 10 8 7 6 6 6 6 5 5 6 7 8 10 11 11 12 11 11 7 6 8 12 13 12 10 11 11 10
13 14 15 15 15 15 15 13 13 13 12 11 10 9 8 8 8 8 5 5 5 6 6 5 6 7 8 10 10 10 10 11 9 6 6 6 16 11 12 12 12 10 11
12 12 13 14 14 14 14 13 13 12 11 11 9 7 6 4 3 5 3 3 2 3 5 6 6 6 8 10 11 10 9 10 8 5 7 5 14 11 12 12 12 11 11
11 12 13 13 13 12 12 12 12 12 13 12 12 10 6 4 5 4 3 6 3 3 5 6 7 7 8 9 11 10 10 9 13 7 7 4 13 12 13 12 12 12 11
10 11 10 12 11 11 11 12 11 12 12 11 9 9 9 9 10 10 4 4 4 4 3 5 7 9 8 9 11 10 11 8 6 7 6 16 11 12 12 13 11 12 11
13 13 12 10 11 11 8 10 11 11 10 9 5 7 7 5 2 6 2 4 6 6 6 5 7 9 9 6 7 10 7 9 7 7 2 13 11 13 12 12 11 11 12
12 10 11 11 10 10 8 6 5 5 5 5 9 7 5 3 4 3 3 5 7 11 8 10 10 8 10 7 5 5 8 8 6 6 4 12 12 14 13 13 13 13 12
12 10 11 10 10 9 4 5 6 7 7 4 5 3 3 2 1 2 4 6 7 5 6 5 5 6 8 8 9 9 7 7 7 5 5 11 13 15 14 13 13 13 13
10 8 7 8 8 8 8 5 7 6 7 5 7 7 5 3 3 4 5 7 9 9 5 5 6 6 6 8 8 9 10 10 9 7 8 13 14 15 15 14 15 15 15
10 9 8 7 8 9 9 9 5 5 5 7 6 7 11 8 5 2 4 7 12 9 8 5 5 5 7 6 8 9 10 9 9 10 10 8 15 16 16 15 13 12 15
9 9 9 6 6 8 8 7 6 6 7 6 6 8 11 11 10 10 9 8 14 6 8 5 5 6 6 6 8 7 8 10 10 9 10 11 8 15 16 16 16 17 16
10 8 4 9 4 6 7 5 6 5 6 5 4 6 9 10 11 10 10 10 16 8 7 7 8 5 6 7 6 6 7 9 9 10 10 10 9 9 17 19 19 21 17
12 12 12 7 8 7 4 4 5 7 6 5 5 6 9 10 11 10 9 10 8 7 8 9 8 8 7 8 7 7 7 7 9 8 12 11 11 11 8 21 20 19 20
12 12 10 8 11 9 7 5 5 5 6 5 5 6 6 8 10 10 9 10 7 9 9 9 10 9 8 7 9 7 7 7 7 8 10 8 7 13 12 9 7 11 20
12 13 13 14 7 6 5 5 6 6 4 3 5 5 7 8 10 10 9 9 9 9 9 8 8 10 8 8 7 10 9 9 8 8 9 7 10 11 12 8 4 6 12
11 10 9 8 5 2 3 2 3 3 2 3 3 4 6 8 9 9 11 10 10 6 10 10 10 8 8 8 8 9 9 8 9 8 8 8 10 8 10 11 11 12 10
9 8 7 12 8 3 3 4 4 5 6 5 2 4 3 6 8 8 10 10 10 9 8 10 10 11 10 5 10 8 6 7 1 6 10 8 9 7 7 7 8 11 11
8 6 6 13 12 10 10 7 2 1 3 4 4 4 6 5 8 8 10 10 9 8 9 9 10 10 7 8 5 10 11 5 3 3 4 7 8 9 10 7 8 10 9
7 8 9 11 10 7 7 5 4 1 2 3 4 5 4 5 6 8 8 10 8 7 10 10 11 6 5 7 7 8 9 9 6 4 2 1 5 7 7 8 8 8 9
9 9 9 10 10 8 7 7 5 4 3 5 5 5 6 5 4 3 7 7 7 8 9 9 11 8 7 8 7 10 8 9 9 5 2 2 2 3 4 4 6 6 6
Wind_Direction
150 129 146 141 133 121 116 111 119 126 127 127 132 137 140 138 139 133 131 131 135 130 132 144 152 166 155 146 136 132 131 135 131 126 127 121 122 122 115 129 157 108 115
148 140 142 136 132 126 122 113 111 115 127 127 132 136 139 138 135 129 131 135 139 127 121 125 125 144 162 153 147 147 137 144 135 133 129 124 127 122 127 149 91 111 126
143 139 151 131 128 127 123 121 120 118 126 129 131 134 140 139 134 134 140 138 129 126 120 120 116 126 155 149 151 147 143 145 142 142 168 147 129 132 129 104 106 120 118
142 141 148 132 132 130 127 125 127 128 132 133 133 134 138 142 143 143 142 134 131 135 124 131 134 140 141 149 151 151 149 149 143 169 201 132 138 149 134 122 126 126 129
149 151 127 141 140 140 135 134 135 135 136 137 139 142 144 146 150 151 158 149 162 156 125 130 149 149 152 151 158 152 156 153 152 205 121 118 110 131 146 133 141 140 163
159 155 135 151 150 146 143 143 139 139 142 146 148 149 151 154 159 153 159 167 176 149 138 143 148 149 160 163 161 165 157 153 177 175 138 107 205 135 148 165 135 127 127
157 148 153 154 151 150 153 153 148 145 148 151 155 158 156 150 155 156 161 175 169 160 167 164 158 154 165 162 172 166 162 168 216 161 179 162 113 144 159 152 150 151 145
162 152 155 154 158 159 159 160 156 154 156 157 163 160 156 164 165 152 163 176 192 177 169 176 168 158 164 171 176 171 177 189 214 168 178 181 124 162 164 164 162 161 159
162 161 160 171 171 170 168 166 161 161 162 163 165 170 172 159 130 141 163 183 210 211 193 183 181 171 174 177 179 180 195 206 234 155 194 194 140 179 178 168 175 173 164
168 172 173 173 178 178 173 175 169 170 170 175 172 165 183 191 186 190 204 197 219 211 207 196 193 182 187 184 197 189 195 204 250 186 239 139 146 186 189 177 179 179 179
181 183 186 175 188 183 183 177 174 181 186 185 182 168 171 221 176 170 189 127 217 221 214 196 186 186 209 200 201 198 206 219 225 267 209 122 159 195 194 183 189 189 189
180 185 193 198 196 190 200 184 188 186 201 197 193 164 238 214 233 337 331 207 244 222 212 188 184 188 186 222 193 202 217 235 213 231 266 134 174 202 203 193 189 198 195
179 186 192 180 211 209 201 197 196 185 217 202 199 177 236 306 335 240 255 220 227 202 216 187 173 199 199 222 222 199 222 240 254 233 176 153 183 207 205 199 195 199 204
168 187 179 181 199 214 210 230 187 179 192 198 208 175 179 213 43 353 330 301 303 246 214 182 180 200 205 203 219 224 214 244 243 264 239 173 195 208 215 199 200 207 208
164 176 178 183 195 205 207 222 248 218 191 171 188 188 152 115 234 267 256 287 268 269 242 216 191 194 213 201 235 236 226 218 217 250 257 175 208 210 213 208 201 207 217
170 167 167 189 206 210 220 205 228 219 201 219 207 189 190 195 201 260 284 283 269 234 221 222 192 218 208 225 212 228 237 223 246 238 248 230 201 215 209 211 198 220 231
166 165 154 152 221 213 225 226 218 227 222 216 213 195 188 207 206 215 209 222 275 241 230 246 239 206 247 215 229 227 229 237 247 227 248 250 206 203 208 209 180 207 246
165 153 107 122 202 231 233 217 246 226 226 221 234 228 212 218 229 231 228 195 224 219 246 223 216 225 282 258 244 235 227 251 241 241 241 244 236 246 197 205 196 201 203
161 150 174 170 150 197 203 231 220 244 239 219 223 226 211 222 228 230 242 244 234 221 209 225 225 225 228 259 261 240 243 235 242 242 238 229 245 246 236 186 200 207 203
172 164 158 169 134 176 165 197 227 229 241 235 232 235 230 236 234 236 234 247 246 244 229 230 244 248 238 221 257 250 256 244 231 230 249 242 215 242 234 240 201 204 206
168 162 155 162 133 148 159 171 219 230 224 234 237 251 252 244 238 233 246 241 221 241 247 238 250 252 247 243 253 253 245 240 221 231 232 239 222 229 234 227 211 239 206
172 186 157 126 119 112 98 126 256 275 280 278 273 278 276 268 255 262 260 239 239 230 226 230 225 236 238 220 242 253 256 234 219 217 227 227 232 221 232 220 215 233 245
166 194 217 171 138 138 66 225 205 208 213 221 211 272 279 275 272 264 250 257 251 227 220 222 210 220 240 214 224 240 253 237 244 185 217 229 223 226 238 233 232 239 234
155 136 156 166 157 160 179 212 219 2 313 9 303 336 299 286 278 272 260 255 241 239 235 221 211 212 230 225 222 234 247 296 242 228 241 220 239 231 226 231 229 236 240
142 140 150 163 170 165 164 190 182 11 30 343 341 331 321 272 283 292 273 256 235 226 231 226 210 191 223 229 219 229 227 229 254 272 198 281 233 253 239 217 230 227 216
140 142 144 152 151 153 150 120 101 80 14 356 8 336 341 325 324 325 289 269 256 234 236 224 210 199 208 230 229 237 224 217 222 222 236 231 242 273 269 253 244 250 256